RYR65KA EGKK-LEPA

Flight info

Callsign RYR65KA
Flight time N/A
Altitude 23000
Route SFD Y47 DRAKE/N0444F330 L151 SITET UN859 SOPIL DCT BALAN DCT EVPOK DCT NARAK DCT GAI DCT LOMRA DCT ROCAN DCT IBRAP DCT LUKEV DCT LORES
Aircraft B738/M-SDGIJ1LRWY/SB1

Departure

Time N/A
Airport London Gatwick Airport (EGKK)

Arrival

Time 2026-05-06 10:05
Airport Palma de Mallorca Airport (LEPA)
Time Latitude Longitude Altitude Speed Heading
2026-05-06 09:50 40.30920 2.84083 15608 ft 328 kts 156°
2026-05-06 09:51 40.28916 2.85527 15178 ft 326 kts 156°
2026-05-06 09:51 40.26946 2.86947 14741 ft 324 kts 156°
2026-05-06 09:51 40.24974 2.88366 14299 ft 323 kts 156°
2026-05-06 09:51 40.23007 2.89784 13942 ft 319 kts 156°
2026-05-06 09:52 40.21104 2.91158 13813 ft 308 kts 156°
2026-05-06 09:52 40.19224 2.92512 13360 ft 308 kts 156°
2026-05-06 09:52 40.17351 2.93856 12952 ft 307 kts 156°
2026-05-06 09:52 40.15473 2.95203 12557 ft 306 kts 156°
2026-05-06 09:53 40.13623 2.96529 12176 ft 304 kts 155°
2026-05-06 09:53 40.11754 2.97869 11781 ft 302 kts 155°
2026-05-06 09:53 40.09936 2.99173 11401 ft 300 kts 155°
2026-05-06 09:53 40.08095 3.00492 11020 ft 298 kts 155°
2026-05-06 09:54 40.06289 3.01786 10640 ft 297 kts 155°
2026-05-06 09:54 40.04456 3.03098 10257 ft 295 kts 155°
2026-05-06 09:54 40.02661 3.04381 9946 ft 290 kts 155°
2026-05-06 09:54 40.00916 3.05632 9731 ft 283 kts 155°
2026-05-06 09:55 39.99185 3.06868 9329 ft 284 kts 155°
2026-05-06 09:55 39.97451 3.08103 8976 ft 282 kts 155°
2026-05-06 09:55 39.95740 3.09323 8621 ft 280 kts 154°
2026-05-06 09:55 39.94035 3.10521 8270 ft 277 kts 156°
2026-05-06 09:56 39.92225 3.11385 7919 ft 271 kts 173°
2026-05-06 09:56 39.90379 3.11417 7606 ft 265 kts 188°
2026-05-06 09:56 39.88565 3.11106 7267 ft 263 kts 190°
2026-05-06 09:56 39.86742 3.10778 6943 ft 263 kts 189°
2026-05-06 09:57 39.84934 3.10501 6643 ft 261 kts 188°
2026-05-06 09:57 39.83113 3.10262 6331 ft 261 kts 187°
2026-05-06 09:57 39.81288 3.10037 6005 ft 260 kts 187°
2026-05-06 09:57 39.79496 3.09819 5676 ft 259 kts 186°
2026-05-06 09:58 39.77697 3.09599 5358 ft 258 kts 186°
2026-05-06 09:58 39.75911 3.09380 5114 ft 254 kts 186°
2026-05-06 09:58 39.74163 3.09165 5024 ft 246 kts 186°
2026-05-06 09:58 39.72492 3.08933 5000 ft 238 kts 190°
2026-05-06 09:59 39.70927 3.08319 4996 ft 229 kts 212°
2026-05-06 09:59 39.69822 3.06906 5018 ft 226 kts 237°
2026-05-06 09:59 39.69017 3.05133 4999 ft 227 kts 241°
2026-05-06 09:59 39.68239 3.03340 5000 ft 226 kts 240°
2026-05-06 10:00 39.67451 3.01589 5001 ft 224 kts 239°
2026-05-06 10:00 39.66673 2.99899 4997 ft 209 kts 239°
2026-05-06 10:00 39.65958 2.98296 4800 ft 204 kts 240°
2026-05-06 10:00 39.65240 2.96700 4511 ft 199 kts 239°
2026-05-06 10:01 39.64536 2.95205 4293 ft 191 kts 239°
2026-05-06 10:01 39.63849 2.93752 4082 ft 184 kts 239°
2026-05-06 10:01 39.63190 2.92345 3766 ft 184 kts 239°
2026-05-06 10:01 39.62514 2.90914 3421 ft 185 kts 239°
2026-05-06 10:02 39.61835 2.89472 3071 ft 187 kts 239°
2026-05-06 10:02 39.61156 2.88031 2754 ft 186 kts 239°
2026-05-06 10:02 39.60500 2.86645 2455 ft 176 kts 239°
2026-05-06 10:02 39.59858 2.85281 1954 ft 179 kts 239°
2026-05-06 10:03 39.59214 2.83921 1510 ft 177 kts 239°
2026-05-06 10:03 39.58604 2.82629 1230 ft 163 kts 239°
2026-05-06 10:03 39.58020 2.81394 967 ft 159 kts 239°
2026-05-06 10:03 39.57436 2.80170 796 ft 159 kts 238°
2026-05-06 10:04 39.56850 2.78962 614 ft 158 kts 240°
2026-05-06 10:04 39.56277 2.77720 397 ft 160 kts 237°
2026-05-06 10:04 39.55686 2.76501 192 ft 157 kts 240°
2026-05-06 10:04 39.55136 2.75314 48 ft 147 kts 239°
2026-05-06 10:05 39.54697 2.74390 44 ft 89 kts 240°
2026-05-06 10:05 39.54487 2.73938 43 ft 30 kts 239°
2026-05-06 10:05 39.54432 2.73824 43 ft 9 kts 242°
2026-05-06 10:05 39.54447 2.73752 43 ft 8 kts 324°
2026-05-06 10:06 39.54496 2.73711 43 ft 8 kts 328°
2026-05-06 10:06 39.54543 2.73675 43 ft 8 kts 331°
2026-05-06 10:06 39.54597 2.73633 43 ft 9 kts 329°
2026-05-06 10:06 39.54666 2.73607 43 ft 11 kts 340°
2026-05-06 10:07 39.54732 2.73556 43 ft 10 kts 329°
2026-05-06 10:07 39.54767 2.73548 43 ft 3 kts 39°
2026-05-06 10:07 39.54781 2.73569 43 ft 2 kts 58°
2026-05-06 10:07 39.54787 2.73585 43 ft 1 kts 59°
2026-05-06 10:08 39.54790 2.73590 43 ft 1 kts 58°
2026-05-06 10:08 39.54793 2.73596 43 ft 0 kts 58°